リネ彗星

373P/Rinner (2011)

English version
Home page
Updated on October 24, 2018

---------------------------------------------------------------------

・ プロフィール

符号 373P/2011 W2
発見日 2011年11月28日
発見光度 17.9等
発見者 Claudine Rinner (Ottmarsheim, France)

・ 写真集

・ 軌道要素

Epoch 2011 Nov. 15.0 TT = JDT 2455880.5
T 2011 Nov. 6.19818 TT                                  MPCW
q   2.3029807            (2000.0)            P               Q
n   0.13313572     Peri.  221.06158     -0.03881041     -0.98146792
a   3.7984491      Node   232.01658     +0.96770136     +0.00989782
e   0.3937050      Incl.   13.77349     +0.24909402     -0.19137073
P   7.40
From 574 observations 2011 Nov. 28-2018 Sept. 16, mean residual 0".6.

・ 光度変化

        m1 = 5.0 + 5 logΔ + 30.0 log r

---------------------------------------------------------------------

軌道要素はM.P.E.C. 2018-S03に掲載されたものです。
光度グラフはComet for Windowsで作成したものです。

---------------------------------------------------------------------

Copyright(C) Seiichi Yoshida (comet@aerith.net). All rights reserved.